Content
SEND FEEDBACK

Daily
Averages
Monthly
Summary
United States of America

UPI, GUAM


Home > North America > United States > Guam
Elevation: 53 feet     Latitude: 13 34N     Longitude: 144 55E

WEATHER
 
SELECT A DAY
Number of Records: 215,487;   Date Range: 1/1/95 - 12/16/14
 
SHARE

PRINT THIS DATA

[ ← Previous Day ]
WEATHER ALMANAC - OCTOBER 9, 2013
[ Next Day → ]
[ °C ]   °F
Weather ElementAverageHighLow
Temperature81.7 °F84.9 °F (10:54 am)78.1 °F (1:54 am)
Dewpoint78.2 °F80.6 °F (11:19 am)75.2 °F (11:37 pm)
Humidity89.3 %94 % (4:54 am)80 % (3:54 pm)
Barometer29.72 in29.78 in (8:40 am)29.67 in (3:54 pm)
Wind Speed7.9 mph15 mph (12:16 pm)
Wind Gust23 mph (11:13 am)
Weather ElementAverage
Visibility8.9 mi
Wind DirectionWSW (251.5 °)

Weather ElementTotal
Precipitation0.39 in
Cooling Degree Days16.5 (Base 65)
Growing Degree Days31.5 (Base 50)
Averaged from 40 records on October 9, 2013
WEATHER CONDITIONS BREAKOUT
WIND DIRECTION BREAKOUT
WEATHER BY HOUR - OCTOBER 9, 2013
[ °C ]   °F
Local TimeTemperatureDewpointHumidityBarometerVisibilityWind DirectionWind SpeedGust SpeedPrecipitationEventsConditions
1:54 AM78.1 °F75.9 °F93 %29.70 in10.0 miCalmClear
2:54 AM78.1 °F75.9 °F93 %29.71 in10.0 miCalmPartly Cloudy
3:54 AM79.0 °F75.9 °F90 %29.70 in10.0 miCalmClear
4:54 AM79.0 °F77.0 °F94 %29.70 in10.0 miENE (60°)3.5 mphClear
5:54 AM78.1 °F75.9 °F93 %29.71 in10.0 miCalmClear
6:54 AM81.0 °F79.0 °F94 %29.73 in10.0 miCalmScattered Clouds
7:54 AM82.9 °F79.0 °F88 %29.75 in10.0 miWNW (290°)6.9 mphMostly Cloudy
8:40 AM82.4 °F78.8 °F89 %29.78 in10.0 miWest (270°)4.6 mph0.01 inOvercast
8:43 AM82.4 °F78.8 °F89 %29.78 in1.5 miVariable5.8 mph0.01 inRainLight Rain
8:54 AM82.0 °F79.0 °F90 %29.76 in5.0 miWest (260°)11.5 mph0.08 inRainLight Rain
9:14 AM82.4 °F78.8 °F89 %29.78 in10.0 miWest (270°)8.1 mph0.00 inMostly Cloudy
9:54 AM80.1 °F78.1 °F94 %29.76 in10.0 miWNW (290°)10.4 mph0.00 inRainLight Rain
10:54 AM84.9 °F80.1 °F85 %29.75 in10.0 miWNW (300°)8.1 mph0.00 inMostly Cloudy
11:02 AM84.2 °F78.8 °F84 %29.76 in10.0 miNW (320°)10.4 mphMostly Cloudy
11:13 AM80.6 °F78.8 °F94 %29.76 in2.0 miNW (320°)6.9 mph23.0 mph0.02 inRainHeavy Rain
11:19 AM82.4 °F80.6 °F94 %29.76 in7.0 miNNW (330°)5.8 mph0.03 inMostly Cloudy
11:54 AM82.9 °F79.0 °F88 %29.73 in10.0 miWNW (300°)12.7 mph21.9 mph0.03 inMostly Cloudy
12:16 PM84.2 °F80.6 °F89 %29.74 in10.0 miWest (280°)15.0 mph0.00 inMostly Cloudy
12:42 PM84.2 °F78.8 °F84 %29.73 in10.0 miWNW (300°)11.5 mph0.00 inRainLight Rain
12:54 PM84.0 °F80.1 °F88 %29.70 in10.0 miWNW (300°)10.4 mph0.00 inMostly Cloudy
1:37 PM82.4 °F78.8 °F89 %29.71 in8.0 miNW (320°)10.4 mphMostly Cloudy
1:54 PM82.9 °F78.1 °F85 %29.68 in10.0 miWNW (300°)8.1 mph0.00 inMostly Cloudy
2:30 PM84.2 °F78.8 °F84 %29.70 in10.0 miWNW (290°)15.0 mphMostly Cloudy
2:50 PM84.2 °F78.8 °F84 %29.69 in10.0 miWNW (300°)11.5 mphScattered Clouds
2:54 PM84.9 °F79.0 °F82 %29.68 in10.0 miWNW (290°)12.7 mphScattered Clouds
3:54 PM84.9 °F78.1 °F80 %29.67 in10.0 miNW (310°)13.8 mph0.00 inScattered Clouds
4:54 PM82.0 °F78.1 °F88 %29.68 in10.0 miNW (320°)9.2 mph0.00 inScattered Clouds
5:54 PM82.9 °F78.1 °F85 %29.69 in10.0 miNW (310°)6.9 mphMostly Cloudy
6:21 PM82.4 °F78.8 °F89 %29.72 in7.0 miNW (320°)8.1 mph0.00 inRainLight Rain
6:54 PM81.0 °F78.1 °F91 %29.70 in10.0 miWNW (300°)6.9 mph0.00 inScattered Clouds
7:49 PM82.4 °F78.8 °F89 %29.74 in10.0 miNorth (350°)8.1 mphMostly Cloudy
7:54 PM81.0 °F78.1 °F91 %29.71 in10.0 miNorth (360°)11.5 mphMostly Cloudy
8:03 PM80.6 °F78.8 °F94 %29.74 in10.0 miNorth (360°)10.4 mphOvercast
8:54 PM80.1 °F78.1 °F94 %29.72 in10.0 miNNW (330°)4.6 mph0.04 inMostly Cloudy
9:54 PM80.1 °F78.1 °F94 %29.72 in10.0 miWest (280°)9.2 mphScattered Clouds
10:54 PM80.1 °F77.0 °F90 %29.70 in10.0 miWest (280°)8.1 mphClear
11:20 PM80.6 °F78.8 °F94 %29.71 in10.0 miWest (270°)9.2 mphMostly Cloudy
11:37 PM78.8 °F75.2 °F89 %29.71 in2.5 miNW (310°)11.5 mph0.01 inRainHeavy Rain
11:46 PM78.8 °F75.2 °F89 %29.71 in3.0 miWNW (290°)5.8 mph0.08 inRainLight Rain
11:54 PM79.0 °F75.9 °F90 %29.68 in10.0 miWest (280°)4.6 mph0.08 inRainLight Rain
Hourly data recorded from PGUM, located miles away from Upi, Guam







STORIES FROM OUR PARTNERS